CAPE
0 0 0 0 0 0 0 0 0 0 0 0 0 0 0 0 0 0 0 0 0 0 0 0 0 0 48 658 319 270 309 299 201 135 90 112 56 14 52 57 33 1 38 208
0 0 0 0 0 0 0 0 0 0 0 0 0 0 0 0 0 0 0 0 0 0 0 0 0 0 289 899 575 427 369 315 255 265 153 145 56 98 184 173 98 104 398 316
0 0 0 0 0 0 0 0 0 0 0 0 0 0 0 0 0 0 0 0 0 0 0 0 0 0 86 1084 832 710 590 404 332 296 395 344 568 532 366 249 125 457 525 329
0 0 0 0 0 0 0 0 0 0 0 0 0 0 0 0 0 0 0 0 0 0 0 0 0 0 2 1028 1055 933 523 271 248 279 705 596 597 679 585 451 295 648 306 50
0 0 0 0 0 0 0 0 0 0 0 0 0 0 0 0 0 0 0 0 0 0 0 0 0 0 0 141 1010 968 703 331 301 443 955 681 698 733 514 304 195 42 0 0
0 0 0 0 0 0 0 0 0 0 0 0 0 0 0 0 0 0 0 0 0 0 0 0 0 0 0 0 1066 982 900 391 518 589 948 911 673 614 310 150 89 9 2 2
0 0 0 0 0 0 0 0 0 0 0 0 0 0 0 0 0 0 0 0 0 0 0 0 0 0 0 0 71 1138 1038 515 501 949 863 954 761 464 256 137 40 4 3 2
0 0 0 0 0 0 0 0 0 0 0 0 0 0 0 0 0 0 0 0 0 0 0 0 0 0 0 0 0 1395 959 651 607 957 633 674 459 273 287 144 34 1 1 2
17 0 0 0 0 0 0 0 0 2 0 5 0 0 0 0 0 0 0 0 0 0 0 0 0 0 0 0 0 1320 1255 961 782 286 732 542 481 330 267 78 46 1 1 1
15 10 0 0 0 0 0 0 0 34 6 0 0 0 0 0 0 0 0 0 0 0 0 0 0 0 0 0 0 950 1679 1047 654 362 731 542 331 112 72 135 33 2 1 0
0 12 0 0 0 0 0 0 3 12 10 6 0 0 0 0 0 0 0 0 0 0 0 0 0 0 0 0 0 858 1791 1499 571 325 571 468 268 180 89 31 1 1 0 0
3 11 2 0 0 0 0 0 0 2 0 10 0 0 0 0 0 0 0 0 0 0 0 0 0 0 0 0 0 568 1832 1932 581 529 658 589 342 208 37 1 1 0 0 0
11 5 0 0 0 0 0 0 0 1 2 5 5 0 0 0 0 0 0 0 0 0 0 0 0 0 0 0 1 201 1876 2154 871 876 779 631 362 14 0 1 0 0 0 0
14 1 1 2 0 0 3 4 3 4 3 0 2 0 0 0 0 0 0 0 0 0 0 0 0 0 0 0 366 246 2156 2222 1590 1185 1081 386 5 0 0 1 1 0 0 0
7 2 2 2 1 2 2 0 6 3 3 8 6 4 1 6 8 0 0 0 0 0 0 0 0 0 0 0 29 1608 2147 2253 1660 1428 601 17 1 0 0 0 0 0 0 0
0 3 10 6 0 1 14 1 0 9 24 6 1 14 2 8 8 4 0 0 0 0 0 0 0 3 39 83 392 2139 2187 1855 1466 388 1 1 0 0 0 0 0 0 0 0
0 0 0 0 0 0 0 4 1 0 1 8 14 12 7 4 0 0 0 1 0 0 0 0 0 6 1 345 1410 1660 1563 813 147 0 1 1 1 0 0 0 0 1 0 0
3 0 5 3 0 0 0 4 2 6 0 1 7 7 9 12 7 3 0 0 0 0 0 0 20 41 196 760 1172 876 291 0 1 1 1 1 2 0 0 0 1 1 0 0
0 0 1 0 0 0 11 15 23 5 0 1 17 5 5 6 7 0 0 0 0 0 0 0 3 18 997 1150 712 191 4 1 1 1 3 0 0 0 0 0 2 0 0 0
5 2 3 1 1 0 2 0 0 1 2 5 8 7 7 5 4 0 0 0 0 0 1 0 10 698 831 687 198 1 6 3 1 3 2 0 0 0 0 1 0 0 0 0
0 0 1 0 1 0 0 0 0 1 0 3 10 7 5 5 4 3 2 1 1 1 6 68 454 444 310 24 1 4 7 7 4 1 1 0 1 0 0 0 0 0 0 0
3 0 0 1 1 0 0 0 0 0 5 12 11 8 6 4 4 2 2 3 4 0 98 83 14 17 2 1 1 7 11 9 4 5 2 1 0 0 0 0 0 0 0 0
3 0 0 0 0 0 0 0 0 4 12 3 8 4 3 5 2 1 1 1 0 41 8 3 2 4 5 3 3 5 9 9 1 0 1 0 0 0 0 0 0 0 0 0
7 1 1 2 0 0 0 0 4 2 9 6 5 2 3 4 1 1 11 12 5 13 5 9 8 9 12 12 11 12 3 1 1 0 0 0 0 0 0 0 0 0 0 0
0 1 1 4 0 4 0 0 5 4 3 5 1 1 4 1 1 1 0 18 1 1 1 2 7 8 4 3 3 2 1 0 0 0 0 0 0 0 0 0 0 0 0 0
0 0 1 0 3 5 2 4 3 5 5 2 3 2 1 3 4 0 1 0 0 0 0 1 2 1 1 0 1 1 0 0 0 0 0 0 0 0 0 0 0 0 0 0
CIN
0 0 0 0 0 0 0 0 0 0 0 0 0 0 0 0 0 0 0 0 0 0 0 0 0 0 -54 -129 -228 -300 -226 -295 -363 -437 -351 -401 -429 -550 -487 -540 -496 -121 -481 -328
0 0 0 0 0 0 0 0 0 0 0 0 0 0 0 0 0 0 0 0 0 0 0 0 0 0 -309 -140 -152 -208 -257 -286 -401 -415 -361 -330 -385 -326 -273 -324 -382 -399 -250 -288
0 0 0 0 0 0 0 0 0 0 0 0 0 0 0 0 0 0 0 0 0 0 0 0 0 0 -239 -99 -155 -150 -194 -264 -339 -359 -238 -155 -163 -163 -180 -242 -328 -153 -169 -250
0 0 0 0 0 0 0 0 0 0 0 0 0 0 0 0 0 0 0 0 0 0 0 0 0 0 -17 -97 -100 -117 -175 -247 -271 -251 -113 -68 -160 -144 -141 -149 -192 -115 -188 -361
0 0 0 0 0 0 0 0 0 0 0 0 0 0 0 0 0 0 0 0 0 0 0 0 0 0 0 -158 -126 -96 -137 -200 -218 -170 -35 -79 -136 -125 -172 -162 -178 -385 0 0
0 0 0 0 0 0 0 0 0 0 0 0 0 0 0 0 0 0 0 0 0 0 0 0 0 0 0 0 -98 -93 -83 -157 -115 -86 -21 -76 -120 -151 -193 -200 -214 -255 0 0
0 0 0 0 0 0 0 0 0 0 0 -1 0 0 0 0 0 0 0 0 0 0 0 0 0 0 0 0 -114 -80 -83 -146 -119 -29 -59 -69 -114 -151 -220 -249 -314 -186 0 0
0 0 0 0 0 0 0 0 0 0 0 0 0 0 0 0 0 0 0 0 0 0 0 0 0 0 0 0 0 -94 -126 -147 -101 -49 -105 -77 -146 -184 -216 -289 -381 0 0 0
-4 -1 0 0 0 0 0 0 0 -5 0 0 0 0 0 0 0 0 0 0 0 0 0 0 0 0 0 0 0 -149 -138 -109 -96 -168 -55 -111 -147 -186 -183 -321 -324 0 0 0
-19 -2 0 0 0 0 0 0 0 0 -1 -1 0 0 0 0 0 0 0 0 0 0 0 0 0 0 0 0 0 -217 -132 -160 -209 -207 -94 -126 -194 -250 -275 -254 -391 0 0 0
-15 -9 0 0 0 0 0 0 -2 0 0 -5 -1 0 0 0 0 0 0 0 0 0 0 0 0 0 0 0 0 -194 -146 -94 -265 -287 -114 -103 -174 -185 -276 -364 0 0 0 0
-53 -9 0 0 0 0 0 0 -1 0 0 -1 0 0 0 0 0 0 0 0 0 0 0 0 0 0 0 0 0 -254 -116 -70 -291 -243 -122 -97 -150 -153 -361 0 0 0 0 0
-22 0 -1 0 0 0 0 0 0 0 0 -1 -2 0 0 0 0 0 0 0 0 0 0 0 0 0 0 0 -23 -322 -88 -77 -200 -126 -114 -72 -102 -274 0 0 0 0 0 0
-2 0 -1 -1 0 0 0 0 0 0 0 -1 0 0 0 0 0 0 0 0 0 0 0 0 0 0 0 0 -286 -289 -64 -72 -71 -59 -70 -143 -260 0 0 0 -1 0 0 0
-1 -1 0 0 0 0 0 0 0 0 0 -1 0 -1 0 -1 -1 -1 0 0 0 0 0 0 0 0 0 0 -327 -68 -54 -28 -59 -21 -114 -229 0 0 0 0 0 0 0 0
0 0 0 0 0 0 0 0 0 -1 0 0 0 0 0 0 0 0 0 0 0 0 0 -145 -3 -405 -417 -383 -278 -29 -19 -20 -65 -224 0 0 0 0 0 0 0 0 0 0
0 0 0 0 0 0 0 0 0 0 0 0 0 0 0 0 0 0 0 0 0 0 0 0 0 -70 -368 -275 -69 -10 -11 -127 -259 0 0 0 0 0 0 0 0 0 0 0
0 0 -1 0 0 0 0 0 0 0 0 0 0 0 0 0 0 0 0 -1 0 0 0 0 -142 -288 -252 -195 -30 -51 -200 -89 0 0 0 0 0 0 0 0 0 0 0 0
-1 0 0 0 0 0 -1 0 0 0 0 -1 0 0 0 0 0 0 0 0 0 0 0 0 -33 -215 -98 -80 -121 -178 -46 0 0 0 0 0 0 0 0 0 0 0 0 0
-7 0 -1 0 0 0 0 0 0 0 0 0 0 0 0 0 0 0 0 -1 -1 0 0 0 -182 -51 -101 -99 -154 -1 0 0 0 0 0 0 0 0 0 0 0 0 0 0
0 0 0 0 0 0 0 0 0 -1 0 0 0 0 0 0 0 0 0 0 -1 0 -5 -9 -5 -60 -238 -169 0 0 0 0 0 0 0 0 0 0 0 0 0 0 0 0
0 0 0 0 0 0 0 0 0 0 -1 0 0 0 0 0 0 0 0 0 0 0 -6 -29 -83 -209 0 0 0 0 0 0 0 0 0 0 0 0 0 0 0 0 0 0
0 0 0 0 0 0 0 0 0 0 0 -1 0 0 0 0 0 0 0 -21 0 -22 -10 -1 0 0 0 0 0 0 0 0 0 0 0 0 0 0 0 0 0 0 0 0
0 0 0 0 0 0 0 0 -2 -2 0 0 0 0 0 0 0 0 -20 -3 -29 -128 0 0 0 0 0 0 0 0 0 0 0 0 0 0 0 0 0 0 0 0 0 0
0 0 0 0 0 0 0 -1 -1 0 0 0 0 0 0 0 0 0 0 -1 0 0 0 -1 0 0 0 0 0 0 0 -1 0 0 0 0 0 0 0 0 0 0 0 0
0 0 0 0 0 0 0 0 0 0 0 0 0 0 0 0 0 0 0 0 0 0 0 0 0 0 0 0 0 0 -1 0 0 0 0 0 0 0 0 0 0 0 0 0
Wind_Speed
2 4 6 12 9 7 6 6 11 12 13 6 13 17 13 14 10 12 10 8 7 9 8 8 8 9 5 6 11 13 14 17 14 11 9 5 7 5 5 5 6 7 7 7
3 7 14 8 6 6 7 7 8 9 12 6 11 18 15 13 10 15 15 12 8 5 5 8 9 8 7 9 10 14 13 11 10 10 9 5 6 3 4 4 6 8 9 9
9 10 1 5 5 6 6 6 8 16 15 6 8 21 10 9 9 11 13 10 8 10 9 8 8 8 5 10 12 14 15 14 13 11 7 3 6 5 3 5 4 5 9 9
6 6 5 4 5 6 10 9 12 12 8 6 5 15 5 9 15 11 14 10 10 9 7 8 9 8 8 13 13 13 12 14 12 12 10 11 10 9 4 3 5 8 8 9
9 3 7 7 8 3 6 6 7 13 11 5 6 5 5 2 5 10 10 12 12 6 9 10 9 10 10 6 12 14 13 13 14 14 11 8 8 8 8 8 9 8 6 11
6 5 4 6 3 2 3 5 10 3 2 7 12 10 4 6 8 6 6 8 7 4 7 8 8 7 9 8 7 12 14 14 14 15 10 11 15 13 11 11 9 6 6 4
7 5 3 3 5 6 8 6 5 6 1 6 5 7 14 13 9 9 10 9 6 2 5 7 7 7 8 9 7 12 14 13 15 16 13 11 15 16 17 14 11 10 6 6
2 9 3 1 2 5 8 6 5 5 4 5 3 9 7 9 11 8 7 7 5 3 1 6 7 7 8 10 8 11 14 13 15 15 14 13 14 10 12 14 13 11 10 7
4 7 5 13 15 9 3 5 4 2 4 6 4 7 9 11 9 6 6 1 3 5 4 7 6 8 9 10 10 11 13 14 17 15 16 15 14 15 12 12 11 10 13 12
4 13 5 3 3 7 7 5 2 2 4 5 5 5 7 7 4 4 6 7 7 4 5 6 6 7 9 10 11 11 12 16 18 17 15 15 15 12 12 10 12 12 13 15
1 5 7 5 5 5 2 3 3 3 3 4 6 5 7 7 8 5 6 8 9 8 5 5 7 7 3 7 8 11 12 14 15 17 14 16 14 12 14 12 12 13 14 15
3 4 8 10 15 7 5 4 6 3 3 5 4 11 7 5 5 4 8 10 11 6 6 4 6 7 7 6 11 12 12 15 17 17 16 15 15 14 14 14 12 15 14 12
4 4 4 9 4 3 3 4 8 6 5 13 8 9 1 5 7 8 8 8 13 16 14 5 5 6 7 8 9 14 13 16 17 17 18 16 17 15 14 16 15 15 17 14
10 6 9 11 12 4 8 9 10 8 5 7 12 22 20 19 20 19 12 9 11 15 14 6 6 7 7 9 8 15 14 16 18 17 18 17 17 18 17 16 16 15 16 15
2 6 7 16 18 19 24 23 19 16 16 12 12 18 17 16 14 12 14 14 14 15 13 7 7 8 7 10 9 16 15 16 18 17 17 18 18 19 19 18 17 16 16 12
1 3 3 8 18 17 20 20 16 15 9 12 14 19 9 14 15 15 15 13 15 16 14 12 8 9 10 12 11 16 17 17 20 19 19 19 20 19 19 18 17 17 16 13
2 2 3 6 7 14 8 6 2 2 10 12 10 5 12 18 20 19 18 17 19 18 17 16 15 14 14 14 14 19 16 19 22 21 21 21 20 20 19 18 16 15 10 13
3 2 3 6 6 5 2 5 4 9 17 8 7 11 14 16 19 22 20 23 21 19 19 17 14 13 16 13 15 19 19 22 23 22 22 21 22 22 20 20 17 14 11 12
7 2 4 3 2 10 9 4 5 9 21 6 5 18 21 19 22 21 12 8 15 15 15 16 11 16 14 16 22 22 21 23 24 22 22 22 24 24 21 20 17 14 13 13
5 7 3 2 4 5 1 8 12 8 9 6 16 20 21 19 14 16 16 18 18 17 15 9 15 8 16 18 22 24 22 23 23 22 22 22 23 22 20 17 19 13 14 13
4 2 5 4 5 7 2 12 9 1 7 18 18 20 21 17 14 22 26 26 15 14 12 13 15 16 22 19 24 22 23 23 23 23 22 20 18 21 22 19 13 14 14 14
3 3 3 3 4 7 1 5 2 6 13 18 20 20 22 23 25 23 21 20 13 5 7 18 19 15 18 22 25 22 23 23 26 26 24 22 21 16 14 22 15 14 14 13
4 5 3 6 6 2 5 8 9 9 16 19 20 23 24 24 24 24 20 10 6 15 14 18 20 19 18 21 25 27 22 23 26 27 25 23 18 18 15 16 16 12 12 10
4 3 4 2 3 4 13 8 6 15 18 20 20 23 24 22 21 15 10 17 10 16 15 19 20 22 21 22 24 25 26 23 24 29 25 22 17 17 13 11 10 10 9 10
3 2 4 6 8 10 6 10 14 17 19 19 21 23 20 15 12 15 17 17 16 17 16 18 19 21 21 23 24 22 27 27 22 25 21 18 14 15 14 12 8 10 8 8
4 5 2 4 4 6 11 13 18 17 18 19 20 21 16 13 7 19 16 14 14 17 18 19 20 23 22 22 25 23 23 25 24 22 16 14 13 13 13 14 14 22 21 22
Wind_Direction
5 51 254 252 215 239 274 282 268 274 276 283 275 279 280 279 283 276 275 256 246 239 263 245 260 262 264 174 187 179 183 179 172 160 171 182 193 181 185 164 169 149 155 145
11 233 248 246 253 224 244 253 266 268 267 235 272 273 278 273 252 257 265 263 240 200 241 255 254 261 216 215 193 186 193 184 179 166 171 187 160 158 177 138 153 156 147 139
211 245 197 201 261 251 244 239 270 274 291 256 280 279 240 248 236 241 249 240 230 213 219 234 238 254 228 215 204 191 183 187 191 180 156 127 116 110 107 135 133 149 137 131
226 273 232 239 239 239 290 268 281 277 293 278 123 295 233 239 251 252 257 258 240 223 202 231 219 242 239 213 206 208 183 182 182 179 178 171 168 158 141 137 150 136 129 117
252 275 267 267 245 228 240 302 274 272 261 287 213 260 277 275 244 252 256 246 252 226 194 226 221 227 235 209 195 201 188 188 182 180 181 173 121 122 123 116 116 93 107 109
249 267 224 227 293 84 313 346 312 6 150 253 219 198 303 228 233 265 257 266 254 208 207 232 239 234 241 264 181 191 186 185 177 175 179 165 142 137 129 134 130 128 116 90
322 304 272 57 4 351 9 35 328 330 253 239 327 213 253 292 272 246 259 271 278 164 199 225 234 229 230 245 201 185 191 180 184 177 169 160 150 146 138 135 132 126 115 110
321 326 340 220 183 222 277 171 175 263 250 268 319 252 250 245 281 279 259 267 317 350 300 252 249 245 234 233 226 186 177 173 181 177 165 156 158 153 152 150 144 138 129 104
289 259 261 279 291 155 201 195 224 262 241 270 234 290 301 266 307 270 244 295 343 328 297 267 279 242 233 227 214 207 175 170 178 170 161 152 152 158 164 154 148 132 132 130
278 290 254 360 335 217 178 170 38 212 274 259 274 259 241 285 270 344 352 312 290 253 258 288 291 265 228 228 212 210 182 173 165 161 158 160 156 144 145 140 126 133 125 119
272 222 282 20 212 210 152 223 168 219 220 263 296 254 217 249 253 236 300 296 295 308 296 273 291 304 257 254 245 207 181 158 167 162 163 161 154 148 137 136 135 129 122 130
235 282 272 241 262 233 175 216 163 222 223 233 234 261 257 240 255 260 286 288 290 278 289 268 254 280 294 237 238 213 193 161 169 166 162 159 147 148 136 134 128 126 120 115
170 241 298 316 14 70 194 204 205 234 234 242 261 260 244 312 291 265 265 299 308 308 300 273 265 264 269 261 215 224 191 167 161 161 157 151 147 132 128 126 130 126 118 115
261 234 220 256 254 260 264 250 246 236 241 273 246 280 284 292 290 295 303 311 299 298 288 270 243 258 252 251 244 202 192 163 157 158 156 144 133 129 127 126 120 117 114 115
212 253 228 252 264 268 265 269 269 263 261 261 284 274 285 305 309 290 299 304 306 301 295 257 232 252 251 257 256 197 173 163 144 150 144 134 126 125 120 115 114 110 103 105
25 272 293 274 263 268 276 274 263 260 278 285 284 283 355 313 301 289 287 286 287 283 288 291 268 255 249 247 236 176 158 161 138 133 125 123 122 119 115 112 114 109 111 107
306 297 279 265 321 306 288 312 125 290 281 280 277 308 302 307 304 302 294 289 280 279 277 274 268 263 250 233 210 154 145 128 122 121 121 119 118 112 109 107 102 99 116 119
221 252 245 286 327 340 218 73 330 295 282 275 277 313 299 294 295 293 282 273 271 262 262 265 270 268 228 215 152 130 133 120 121 123 120 118 116 108 104 102 101 97 91 90
209 204 275 296 279 269 174 56 326 318 300 292 305 320 316 310 305 292 269 263 258 260 274 269 263 268 172 139 130 130 130 127 124 124 122 121 117 114 116 115 113 94 97 85
201 238 253 292 277 284 52 332 311 296 269 39 339 313 309 311 300 291 310 303 282 285 279 236 272 195 124 126 136 127 134 126 119 122 120 119 119 119 113 110 101 105 98 85
285 265 245 250 259 277 40 307 298 347 287 329 315 303 298 291 276 286 293 289 282 266 268 221 159 137 125 138 114 124 126 117 115 109 104 104 107 110 108 102 99 101 97 100
270 282 246 241 267 284 303 279 356 285 301 303 303 300 295 292 292 287 284 277 273 240 139 115 110 113 121 115 112 113 113 116 112 108 103 103 102 99 103 106 107 104 110 105
260 207 269 212 240 187 231 239 278 282 300 305 302 300 300 296 293 293 286 268 168 128 121 115 112 111 105 107 110 108 110 115 109 105 103 95 94 97 106 110 113 113 106 109
252 157 240 299 234 279 296 300 316 315 302 302 301 298 298 300 296 305 77 136 143 111 115 117 115 112 112 112 108 110 109 106 105 103 98 101 101 105 100 99 95 106 112 107
243 168 236 251 284 298 256 327 316 307 304 307 307 303 307 308 326 46 39 111 105 109 108 109 108 103 103 106 104 110 105 104 107 98 102 104 108 100 95 77 90 90 58 96
183 216 231 272 286 282 290 303 304 305 310 308 306 313 322 3 52 74 49 53 86 97 96 88 94 98 100 101 102 101 108 108 108 105 107 112 109 107 103 96 85 70 87 88